Location: Northcutt
(34.7304°N, 84.4305°W)
Time: 03:44:31
(UTC+00:00)

A-11 Canister half - Pass Details

Date: 04 October 2022
Orbit: 1524 x 1685 km, 47.3° (Epoch: 01 December)

Event Time Altitude Azimuth Distance (km) Brightness Sun altitude
Rises 03:26:07 0° 304° (NW) 4,736 12.2 -48.7°
Reaches altitude 10° 03:29:10 10° 302° (WNW) 3,769 11.5 -49.2°
Enters shadow 03:34:04 35° 291° (WNW) 2,362 10.1 -50.0°
Maximum altitude 03:38:37 66° 222° (SW) 1,730 - -50.6°
Drops below altitude 10° 03:48:23 10° 143° (SE) 3,883 - -52.0°
Sets 03:51:35 0° 140° (SE) 4,886 - -52.5°
